Pellston, MI

1:26 AM EDT on April 25, 2017 (GMT -0400)
Pellston Regional Airport Of Emmet County

Weather History for KPLN - February, 2014

Change the Weather History Date:

Sunday, February 9, 2014

  Actual Average Record
Temperature  
Mean Temperature 10 °F -  
Max Temperature 19 °F 26 °F 51 °F (1966)
Min Temperature 1 °F 2 °F -30 °F (1951)
Degree Days  
Heating Degree Days 55    
Moisture  
Dew Point 4 °F    
Average Humidity 80    
Maximum Humidity 92    
Minimum Humidity 57    
Precipitation  
Precipitation 0.00 in - - ()
Sea Level Pressure  
Sea Level Pressure 30.09 in    
Wind  
Wind Speed 1 mph (NW)    
Max Wind Speed 12 mph    
Max Gust Speed -    
Visibility 6 miles    
Events Snow    
Averages and records for this station are not official NWS values.
T = Trace of Precipitation, MM = Missing Value Source: NWS Daily Summary

Daily Weather History Graph

Daily Weather History Graph

Search for Another Location

Airport or City:

Trip Planner

Search our weather history database for the weather conditions in past years. The results will help you decide how hot, cold, wet, or windy it might be!

Date:

Astronomy

Feb. 09, 2014 Rise Set
Actual Time 7:49 AM EST 5:57 PM EST
Civil Twilight 7:19 AM EST 6:28 PM EST
Nautical Twilight 6:44 AM EST 7:03 PM EST
Astronomical Twilight 6:09 AM EST 7:38 PM EST
Moon 1:31 PM EST (2/9) 3:59 AM EST (2/9)
Length of Visible Light 11h 09m
Length of Day
10h 07m
Waxing Gibbous, 77% of the Moon is Illuminated
Feb 9
Waxing Gibbous
Feb 14
Full
Feb 22
Last Quarter
Mar 1
New
Mar 8
First Quarter

Hourly Weather History & Observations

Time (EST) Temp. Windchill Dew Point Humidity Pressure Visibility Wind Dir Wind Speed Gust Speed Precip Events Conditions
12:27 AM 10.9 °F - 7.0 °F 84% 30.10 in 3.0 mi Calm Calm - 0.00 in Snow Light Snow
12:34 AM 10.9 °F - 7.0 °F 84% 30.10 in 2.5 mi Calm Calm - 0.00 in Snow Light Snow
12:43 AM 10.0 °F - 7.0 °F 87% 30.10 in 3.0 mi Calm Calm - 0.00 in Snow Light Snow
12:54 AM 10.0 °F - 6.1 °F 84% 30.15 in 2.5 mi Calm Calm - 0.00 in Snow Light Snow
1:03 AM 10.0 °F - 6.1 °F 84% 30.10 in 2.5 mi Calm Calm - 0.00 in Snow Light Snow
1:17 AM 9.0 °F - 5.0 °F 84% 30.09 in 3.0 mi Calm Calm - 0.00 in Snow Light Snow
1:54 AM 7.0 °F - 3.9 °F 87% 30.14 in 5.0 mi Calm Calm - 0.00 in   Overcast
2:39 AM 7.0 °F - 3.0 °F 84% 30.08 in 4.0 mi Calm Calm - 0.00 in Snow Light Snow
2:54 AM 6.1 °F - 3.9 °F 91% 30.13 in 4.0 mi Calm Calm - 0.00 in   Overcast
3:16 AM 3.0 °F - -0.0 °F 87% 30.07 in 6.0 mi Calm Calm - N/A   Mostly Cloudy
3:34 AM 3.9 °F - -0.0 °F 84% 30.07 in 9.0 mi Calm Calm - N/A   Mostly Cloudy
3:54 AM 3.9 °F - 1.0 °F 88% 30.12 in 7.0 mi Calm Calm - N/A   Overcast
4:29 AM 5.0 °F - 1.0 °F 84% 30.06 in 7.0 mi Calm Calm - N/A   Overcast
4:54 AM 5.0 °F - 1.0 °F 84% 30.10 in 6.0 mi Calm Calm - N/A   Overcast
5:54 AM 5.0 °F - 1.0 °F 84% 30.10 in 7.0 mi Calm Calm - 0.00 in   Overcast
6:54 AM 6.1 °F -2.8 °F 1.9 °F 83% 30.10 in 4.0 mi North 4.6 mph - 0.00 in Snow Light Snow
7:54 AM 7.0 °F - 3.0 °F 84% 30.11 in 3.0 mi Calm Calm - 0.00 in Snow Light Snow
8:11 AM 8.1 °F - 3.9 °F 83% 30.05 in 2.0 mi Calm Calm - 0.00 in Snow Light Snow
8:19 AM 8.1 °F - 3.9 °F 83% 30.05 in 1.2 mi Calm Calm - 0.00 in Snow Light Snow
8:54 AM 9.0 °F - 3.9 °F 80% 30.10 in 1.2 mi Calm Calm - 0.00 in Snow Light Snow
9:06 AM 9.0 °F - 5.0 °F 84% 30.05 in 0.8 mi Calm Calm - 0.00 in Snow Light Snow
9:33 AM 10.0 °F - 6.1 °F 84% 30.04 in 1.2 mi Calm Calm - 0.00 in Snow Light Snow
9:54 AM 9.0 °F - 6.1 °F 88% 30.09 in 1.8 mi Calm Calm - 0.00 in Snow Light Snow
10:02 AM 10.0 °F - 6.1 °F 84% 30.04 in 2.0 mi Calm Calm - 0.00 in Snow Light Snow
10:18 AM 10.0 °F - 8.1 °F 92% 30.04 in 3.0 mi Calm Calm - 0.00 in   Overcast
10:52 AM 12.2 °F - 8.6 °F 85% 30.04 in 3.0 mi Calm Calm - 0.00 in Snow Light Snow
10:54 AM 12.9 °F - 9.0 °F 84% 30.09 in 3.0 mi Calm Calm - 0.00 in Snow Light Snow
11:54 AM 14.0 °F - 9.0 °F 80% 30.08 in 10.0 mi Calm Calm - 0.00 in   Scattered Clouds
12:54 PM 18.0 °F 12.7 °F 8.1 °F 65% 30.06 in 10.0 mi NW 3.5 mph - N/A   Scattered Clouds
1:02 PM 19.9 °F - 9.0 °F 62% 30.01 in 10.0 mi Calm Calm - N/A   Mostly Cloudy
1:17 PM 18.0 °F 7.7 °F 7.0 °F 62% 30.01 in 10.0 mi NNW 8.1 mph - N/A   Mostly Cloudy
1:54 PM 16.0 °F 3.6 °F 5.0 °F 62% 30.06 in 10.0 mi North 10.4 mph - N/A   Scattered Clouds
2:54 PM 16.0 °F 2.9 °F 5.0 °F 62% 30.06 in 10.0 mi NW 11.5 mph - N/A   Mostly Cloudy
3:54 PM 16.0 °F 5.3 °F 3.0 °F 57% 30.07 in 10.0 mi NW 8.1 mph - N/A   Overcast
4:54 PM 15.1 °F 4.2 °F 3.0 °F 59% 30.09 in 10.0 mi NW 8.1 mph - N/A   Overcast
5:54 PM 12.0 °F 1.5 °F 1.9 °F 64% 30.12 in 10.0 mi NW 6.9 mph - N/A   Overcast
6:54 PM 9.0 °F 0.6 °F 3.0 °F 77% 30.14 in 10.0 mi West 4.6 mph - N/A   Overcast
7:54 PM 1.9 °F -9.2 °F -0.9 °F 88% 30.16 in 10.0 mi NW 5.8 mph - N/A   Mostly Cloudy
8:54 PM 5.0 °F -4.1 °F 1.0 °F 84% 30.17 in 10.0 mi West 4.6 mph - N/A   Overcast
9:54 PM 7.0 °F -5.7 °F 1.9 °F 80% 30.19 in 10.0 mi NW 8.1 mph - N/A   Overcast
10:54 PM 8.1 °F -5.3 °F 1.9 °F 76% 30.21 in 10.0 mi NW 9.2 mph - N/A   Mostly Cloudy
11:54 PM 8.1 °F -7.0 °F 1.0 °F 73% 30.22 in 10.0 mi NNW 11.5 mph - N/A   Overcast